Location: ????????
(55.6189°N, 38.3031°E)
Time: 00:51:38
(UTC+00:00)

Exosat Rocket - Pass Details

Date: 15 November 2019
Orbit: 761 x 2513 km, 72.3° (Epoch: 11 December)

Event Time Altitude Azimuth Distance (km) Brightness Sun altitude
Exits shadow 03:17:29 - 331° (NNW) 2,497 5.8 -14.2°
Reaches altitude 10° 03:17:54 10° 332° (NNW) 2,334 5.6 -14.2°
Maximum altitude 03:22:58 65° 55° (NE) 943 4.1 -13.5°
Drops below altitude 10° 03:29:11 10° 137° (SE) 2,848 7.4 -12.6°
Sets 03:32:11 0° 140° (SE) 4,021 8.2 -12.2°
